Location: Spruce Knob
(38.6995°N, 79.5330°W)
Time: 11:46:44
(UTC-05:00)

Envisat - Pass Details

Date: 03 December 2021
Orbit: 764 x 766 km, 98.2° (Epoch: 23 January)

Event Time Altitude Azimuth Distance (km) Brightness Sun altitude
Rises 06:10:56 0° 1° (N) 3,238 6.1 -13.1°
Reaches altitude 10° 06:13:30 10° 350° (N) 2,307 5.2 -12.6°
Maximum altitude 06:17:49 29° 292° (WNW) 1,380 3.8 -11.8°
Drops below altitude 10° 06:22:07 10° 233° (SW) 2,294 5.1 -11.0°
Sets 06:24:40 0° 223° (SW) 3,215 6.0 -10.6°
